Home   Weather   Londonderry   Past weeks

Flag for United Kingdom Past Weather in Londonderry, Northern Ireland, United Kingdom — Yesterday and Last 2 Weeks

Now
61 °F

Passing clouds.


Feels Like: 61 °F
Forecast: 56 / 67 °F
Wind: 25 mph from Southwest

Location: Eglinton / Londonderry

Current Time: Sep 27, 2016 at 9:38:34 PM

Latest Report: Sep 27, 2016 at 7:50 PM


Visibility: N/A

Pressure: 29.98 "Hg

Humidity: 77%

Dew Point: 54 °F

Location of LondonderryLocation

Past Weather in Londonderry — Graph

°F

Londonderry Temperature Yesterday

Maximum temperature yesterday: 63 °F (at 2:50 PM)
Minimum temperature yesterday: 48 °F (at 6:20 AM)
Average temperature yesterday: 55 °F

High & Low Weather Summary for the Past Weeks

 TemperatureHumidityPressure
High64 °F (Sep 14, 3:50 PM)100% (Sep 13, 6:20 AM)30.27 "Hg (Sep 13, 6:20 AM)
Low43 °F (Sep 22, 6:50 AM)63% (Sep 19, 11:50 AM)29.47 "Hg (Sep 24, 11:50 AM)
Average58 °F83%29.93 "Hg
* Reported Sep 13 6:20 AM — Sep 27 7:50 PM, Londonderry, Weather by CustomWeather, © 2016

Note: Actual official high and low records may vary slightly from our data, if they occured in-between our weather recording intervals... More about our weather records

Advertising

Londonderry Weather History for the Previous 24 Hours

Scroll right to see more
 ConditionsComfort  
Time TempWeatherWind HumidityBarometerVisibility
7:50 PM
Tue, Sep 27
61 °FPassing clouds.25 mph77%29.98 "HgN/A
7:20 PM61 °FPassing clouds.25 mph77%29.98 "HgN/A
6:50 PM61 °FPassing clouds.24 mph77%29.98 "HgN/A
6:20 PM61 °FPassing clouds.28 mph72%29.98 "HgN/A
5:50 PM61 °FPassing clouds.26 mph72%29.95 "HgN/A
5:20 PM63 °FPassing clouds.23 mph68%29.95 "HgN/A
4:50 PM63 °FPassing clouds.23 mph68%29.98 "HgN/A
4:20 PM63 °FPassing clouds.21 mph73%29.98 "HgN/A
3:50 PM63 °FPassing clouds.23 mph68%29.98 "HgN/A
3:20 PM63 °FPassing clouds.28 mph68%29.98 "HgN/A
2:50 PM63 °FScattered clouds.26 mph68%29.95 "HgN/A
2:20 PM63 °FScattered clouds.28 mph68%29.98 "HgN/A
1:50 PM61 °FScattered clouds.26 mph72%29.95 "HgN/A
1:20 PM61 °FPartly sunny.24 mph72%29.98 "HgN/A
12:50 PM61 °FPartly sunny.25 mph68%29.95 "HgN/A
12:20 PM59 °FPartly sunny.25 mph77%29.95 "HgN/A
11:50 AM61 °FScattered showers. Partly sunny.28 mph68%29.92 "HgN/A
11:20 AM59 °FPartly sunny.17 mph77%29.92 "HgN/A
10:50 AM59 °FPartly sunny.16 mph77%29.89 "HgN/A
10:20 AM59 °FPartly sunny.13 mph77%29.89 "HgN/A
9:50 AM59 °FScattered clouds.12 mph82%29.89 "HgN/A
9:20 AM59 °FSprinkles. Partly sunny.10 mph77%29.86 "HgN/A
8:50 AM57 °FScattered clouds.17 mph82%29.86 "HgN/A
8:20 AM57 °FLight rain. Partly sunny.13 mph88%29.83 "HgN/A
7:50 AM59 °FLight rain. Partly sunny.23 mph94%29.80 "HgN/A
7:20 AM61 °FLight rain. Passing clouds.16 mph94%29.77 "Hg4 mi
6:50 AM61 °FSprinkles. Passing clouds.16 mph88%29.74 "Hg4 mi
6:20 AM61 °FPassing clouds.18 mph94%29.74 "HgN/A
Weather by CustomWeather, © 2016

See weather overviewHow to use our weather pages